Lancaster, OH

7:02 PM EDT on July 27, 2017 (GMT -0400)
Fairfield County

Weather History for KLHQ - October, 2010

Change the Weather History Date:

Thursday, October 28, 2010

  Actual Average Record
Temperature  
Mean Temperature 54 °F -  
Max Temperature 62 °F 62 °F 81 °F (1963)
Min Temperature 45 °F 35 °F 19 °F (1976)
Degree Days  
Heating Degree Days 12    
Growing Degree Days 4 (Base 50)    
Moisture  
Dew Point 33 °F    
Average Humidity 51    
Maximum Humidity 60    
Minimum Humidity 30    
Precipitation  
Precipitation 0.00 in - - ()
Sea Level Pressure  
Sea Level Pressure 30.06 in    
Wind  
Wind Speed 11 mph (West)    
Max Wind Speed 18 mph    
Max Gust Speed 31 mph    
Visibility 10 miles    
Events      
Averages and records for this station are not official NWS values.
T = Trace of Precipitation, MM = Missing Value Source: NWS Daily Summary

Daily Weather History Graph

Daily Weather History Graph

Search for Another Location

Airport or City:

Trip Planner

Search our weather history database for the weather conditions in past years. The results will help you decide how hot, cold, wet, or windy it might be!

Date:

Astronomy

Oct. 28, 2010 Rise Set
Actual Time 7:54 AM EDT 6:33 PM EDT
Civil Twilight 7:27 AM EDT 7:01 PM EDT
Nautical Twilight 6:55 AM EDT 7:32 PM EDT
Astronomical Twilight 6:23 AM EDT 8:04 PM EDT
Moon 11:03 PM EDT (10/28) 1:14 PM EDT (10/28)
Length of Visible Light 11h 34m
Length of Day
10h 38m
Waning Gibbous, 70% of the Moon is Illuminated
Oct 28
Waning Gibbous
Oct 30
Last Quarter
Nov 6
New
Nov 13
First Quarter
Nov 21
Full

Hourly Weather History & Observations

Time (EDT) Temp. Windchill Dew Point Humidity Pressure Visibility Wind Dir Wind Speed Gust Speed Precip Events Conditions
12:53 AM 62.1 °F - 41.0 °F 46% 29.86 in 10.0 mi WSW 8.1 mph - N/A   Clear
1:53 AM 61.0 °F - 39.9 °F 46% 29.88 in 10.0 mi WSW 9.2 mph - N/A   Clear
2:53 AM 62.1 °F - 30.0 °F 30% 29.89 in 10.0 mi West 18.4 mph 31.1 mph N/A   Scattered Clouds
3:53 AM 59.0 °F - 33.1 °F 38% 29.90 in 10.0 mi WSW 13.8 mph 21.9 mph N/A   Clear
4:53 AM 55.9 °F - 30.9 °F 39% 29.90 in 10.0 mi WSW 11.5 mph - N/A   Clear
5:53 AM 55.0 °F - 30.0 °F 38% 29.91 in 10.0 mi WSW 11.5 mph 19.6 mph N/A   Clear
6:53 AM 52.0 °F - 30.0 °F 43% 29.94 in 10.0 mi WSW 9.2 mph - N/A   Clear
7:53 AM 48.9 °F - 30.9 °F 50% 29.97 in 10.0 mi West 6.9 mph - N/A   Clear
8:53 AM 50.0 °F - 32.0 °F 50% 30.00 in 10.0 mi West 13.8 mph - N/A   Clear
9:53 AM 48.0 °F - 33.1 °F 56% 30.05 in 10.0 mi WNW 11.5 mph 23.0 mph N/A   Clear
10:53 AM 48.9 °F - 33.1 °F 54% 30.07 in 10.0 mi West 12.7 mph 20.7 mph N/A   Clear
12:53 PM 48.0 °F - 33.1 °F 56% 30.12 in 10.0 mi WNW 15.0 mph 20.7 mph N/A   Overcast
1:53 PM 48.0 °F - 32.0 °F 54% 30.11 in 10.0 mi West 13.8 mph 26.5 mph N/A   Overcast
2:53 PM 48.0 °F - 32.0 °F 54% 30.12 in 10.0 mi WNW 11.5 mph 19.6 mph N/A   Overcast
3:53 PM 46.9 °F - 32.0 °F 56% 30.12 in 10.0 mi WNW 11.5 mph 23.0 mph N/A   Overcast
4:53 PM 46.9 °F - 32.0 °F 56% 30.14 in 10.0 mi West 12.7 mph 21.9 mph N/A   Overcast
5:53 PM 46.0 °F 39.9 °F 32.0 °F 58% 30.15 in 10.0 mi West 13.8 mph 19.6 mph N/A   Overcast
6:53 PM 46.0 °F 41.9 °F 32.0 °F 58% 30.17 in 10.0 mi West 8.1 mph - N/A   Overcast
7:53 PM 46.0 °F 40.6 °F 32.0 °F 58% 30.19 in 10.0 mi West 11.5 mph 21.9 mph N/A   Overcast
8:53 PM 46.0 °F 40.6 °F 32.0 °F 58% 30.19 in 10.0 mi West 11.5 mph 18.4 mph N/A   Overcast
9:53 PM 45.0 °F 39.7 °F 32.0 °F 60% 30.20 in 10.0 mi WNW 10.4 mph - N/A   Overcast
10:53 PM 45.0 °F 40.1 °F 32.0 °F 60% 30.22 in 10.0 mi WNW 9.2 mph - N/A   Overcast
11:53 PM 45.0 °F 41.2 °F 32.0 °F 60% 30.23 in 10.0 mi WNW 6.9 mph - N/A   Overcast